STARLINK-34376

Last updated on Thu Jul 03 2025 00:02:06 GMT+0000 (Coordinated Universal Time)

1 64300U 25123K 25183.58335648 -.01560235 00000+0 -33556-1 0 9993 2 64300 69.9999 120.1051 0002993 275.6540 295.0854 15.47503886 5070
UTC large
Height (km)
Speed (km/s)
/
Latitude / Longitude
Inclination (degrees)
Orbital Period (minutes)
Azimuth
Elevation
Range (km)
Doppler Factor

Next 0 passes for location: London (51.5072 / 0.1276)

Sorry there are no passes over London.